This is the latest recevied weather packets stored in our database for station/object GCEMA. If no packets are shown the sender has not sent any weather packets the latest 10 day(s).
| Time | Temp. | Humidity | Pressure | Rain* | Wind** | Luminosity | Snow |
|---|---|---|---|---|---|---|---|
| 1777270418 | 19.44° C | - | 1012.2 hPa | 0 mm | 0 m/s | - | - |
| 1777270240 | 19.44° C | - | 1012.1 hPa | 0 mm | 0 m/s | - | - |
| 1777269876 | 19.44° C | - | 1012.3 hPa | 0 mm | 0 m/s | - | - |
| 1777269698 | 20° C | - | 1012.3 hPa | 0 mm | 0 m/s | - | - |
| 1777269519 | 20° C | - | 1012.3 hPa | 0 mm | 0 m/s | - | - |
| 1777268977 | 18.89° C | - | 1012.2 hPa | 0 mm | 0 m/s | - | - |
| 1777268617 | 20° C | - | 1012.2 hPa | 0 mm | 0 m/s | - | - |
| 1777268437 | 20° C | - | 1012.2 hPa | 0 mm | 0 m/s | - | - |
| 1777268255 | 19.44° C | - | 1012.3 hPa | 0 mm | 0 m/s | - | - |
| 1777268077 | 20° C | - | 1012.3 hPa | 0 mm | 0 m/s | - | - |
| 1777267537 | 20° C | - | 1012.4 hPa | 0 mm | 0 m/s | - | - |
| 1777267356 | 20° C | - | 1012.4 hPa | 0 mm | 0 m/s | - | - |
| 1777267175 | 20° C | - | 1012.4 hPa | 0 mm | 0 m/s | - | - |
| 1777266996 | 19.44° C | - | 1012.4 hPa | 0 mm | 0 m/s | - | - |
| 1777266454 | 20° C | - | 1012.2 hPa | 0 mm | 0 m/s | - | - |
| 1777266097 | 20° C | - | 1012.2 hPa | 0 mm | 0 m/s | - | - |
| 1777265736 | 20° C | - | 1012.2 hPa | 0 mm | 0 m/s | - | - |
| 1777265375 | 20° C | - | 1012.2 hPa | 0 mm | 0 m/s | - | - |
| 1777264836 | 20° C | - | 1012.2 hPa | 0 mm | 0 m/s | - | - |
| 1777264654 | 20.56° C | - | 1012.2 hPa | 0 mm | 0 m/s | - | - |
| 1777264474 | 20° C | - | 1012.2 hPa | 0 mm | 0 m/s | - | - |
| 1777264294 | 20.56° C | - | 1012.1 hPa | 0 mm | 0 m/s | - | - |
| 1777264115 | 19.44° C | - | 1012.1 hPa | 0 mm | 0 m/s | - | - |
| 1777263936 | 20° C | - | 1012.1 hPa | 0 mm | 0 m/s | - | - |
| 1777263753 | 20.56° C | - | 1012.2 hPa | 0 mm | 0 m/s | - | - |
* Rain latest hour (hover to see other rain measurements)
** Current wind speed in m/s (hover to see current wind gust speed)